Weather in Sakakah

Saudi Arabia     29°55′47″N   40°11′38″E
temp.,
°C
wind,
m/s
gust,
m/s
humid.,
%
clouds,
%
prec.,
mm/h
press.,
hPa
HPBL,
m
17 april, sat
sat1700:00+25e4615100 0.0 1016106
03:00+23se51017100 0.0 1015219
06:00+20ssw345180 0.2 101661
09:00+25s57300 0.3 1016747
12:00+29sse44190 0.0 10151872
15:00+32ese34150 0.0 10132710
18:00+31e45140 0.0 10132198
21:00+27ene57160 0.0 101596
18 april, sun
sun1800:00+25ese611160 0.0 1016168
03:00+22s22400 0.0 101623
06:00+21s22460 0.0 101711
09:00+26s57290 0.0 1018529
12:00+32sw43180 0.0 10172980
15:00+33ssw121319 0.0 10143108
18:00+33e22132 0.0 1014880
21:00+30se33160 0.0 101614
19 april, mon
mon1900:00+27ssw33191 0.0 101513
03:00+25ne33225 0.0 101617
06:00+23ne33245 0.0 101716
09:00+28ene23175 0.0 1018367
12:00+33se11131 0.0 10151543
15:00+35ne1211100 0.0 10132740
18:00+34e23110 0.0 10121352
21:00+30e4414100 0.0 101438
20 april, tue
tue2000:00+27ese461711 0.0 101460
03:00+25sse332089 0.0 101322
06:00+24sse2220100 0.0 101314
09:00+29s241498 0.0 1014362
12:00+35ssw3410100 0.0 10111755
15:00+37se138100 0.0 10093535
18:00+36e339100 0.0 100852
21:00+32e4411100 0.0 100926
21 april, wed
wed2100:00+30se5713100 0.0 100974
03:00+28ne4415100 0.0 101035
06:00+26ne45205 0.0 101143
09:00+31ne56172 0.0 1012594
12:00+35nne221266 0.0 10101487
15:00+37wnw24105 0.0 10093787
18:00+36wnw341182 0.0 1008840
21:00+31nnw4516100 0.0 101163